Home   Weather   Regina   Past weeks
Flag for Canada

Past Weather in Regina, Saskatchewan, Canada — Yesterday and Last 2 Weeks

Now
-2 °F

Passing clouds.


Feels Like: -21 °F
Forecast: -5 / 8 °F
Wind: 13 mph from Southeast

Location: Regina Weather Station

Current Time: Jan 15, 2019 at 11:53:19 pm

Latest Report: Jan 15, 2019 at 11:00 pm


Visibility: 15 mi

Pressure: 30.38 "Hg (28.11 "Hg at 577m altitude)

Humidity: 77%

Dew Point: -8 °F

Location of ReginaLocation

Past Weather in Regina — Graph

°F

Regina Temperature Yesterday

Maximum temperature yesterday: 27 °F (at 4:00 pm)
Minimum temperature yesterday: 14 °F (at 3:52 am)
Average temperature yesterday: 21 °F

High & Low Weather Summary for the Past Weeks

 TemperatureHumidityPressure
High37 °F (Jan 2, 8:00 pm)100% (Jan 2, 1:00 pm)30.66 "Hg (Jan 2, 1:00 pm)
Low-20 °F (Jan 1, 12:00 am)64% (Jan 7, 1:00 am)29.34 "Hg (Jan 7, 1:00 am)
Average15 °F86%30.04 "Hg
* Reported Dec 31 10:00 pm — Jan 15 10:00 pm, Regina. Weather by CustomWeather, © 2019

Note: Actual official high and low records may vary slightly from our data, if they occured in-between our weather recording intervals... More about our weather records

Advertising

Regina Weather History for the Previous 24 Hours

Scroll right to see more
 ConditionsComfort  
Time TempWeatherWind HumidityBarometerVisibility
10:00 pm
Tue, Jan 15
-2 °FPassing clouds.9 mph77%30.38 "Hg15 mi
9:00 pm0 °FPassing clouds.10 mph78%30.39 "Hg15 mi
8:00 pm1 °FPassing clouds.6 mph71%30.40 "Hg15 mi
7:00 pm1 °FClear.7 mph78%30.40 "Hg15 mi
6:00 pm3 °FPassing clouds.6 mph72%30.39 "Hg15 mi
5:00 pm5 °FPassing clouds.7 mph66%30.39 "Hg15 mi
4:00 pm7 °FPassing clouds.7 mph66%30.36 "Hg15 mi
3:00 pm7 °FScattered clouds.10 mph72%30.34 "Hg15 mi
2:00 pm7 °FPassing clouds.10 mph72%30.35 "Hg15 mi
1:00 pm7 °FPassing clouds.10 mph72%30.35 "Hg15 mi
12:00 pm9 °FPassing clouds.15 mph72%30.35 "Hg15 mi
11:00 am10 °FPassing clouds.15 mph79%30.35 "Hg15 mi
10:42 am10 °FPassing clouds.17 mph79%30.34 "Hg12 mi
10:00 am12 °FSnow flurries. Overcast.20 mph85%30.32 "Hg12 mi
9:49 am14 °FSnow flurries. Overcast.16 mph79%30.30 "Hg15 mi
9:25 am16 °FSnow flurries. Overcast.16 mph79%30.27 "Hg6 mi
9:00 am16 °FLight snow. Overcast.20 mph86%30.25 "Hg10 mi
8:40 am18 °FLight snow. Overcast.20 mph79%30.22 "Hg15 mi
8:23 am18 °FLight snow. Overcast.20 mph86%30.21 "Hg15 mi
8:00 am19 °FOvercast.20 mph79%30.20 "Hg12 mi
7:00 am21 °FOvercast.24 mph93%30.15 "Hg10 mi
6:45 am27 °FOvercast.23 mph86%30.13 "Hg8 mi
6:33 am27 °FIce fog.22 mph93%30.11 "Hg6 mi
6:14 am27 °FOvercast.16 mph93%30.11 "Hg8 mi
6:00 am27 °FOvercast.15 mph93%30.10 "Hg10 mi
5:42 am27 °FOvercast.15 mph93%30.09 "Hg10 mi
5:00 am25 °FOvercast.17 mph100%30.07 "Hg10 mi
4:00 am27 °FIce fog.22 mph93%30.05 "Hg6 mi
3:15 am25 °FIce fog.21 mph100%30.03 "Hg6 mi
3:00 am25 °FIce fog.16 mph93%30.03 "Hg5 mi
2:23 am23 °FIce fog.17 mph93%30.02 "Hg6 mi
2:08 am23 °FLow clouds.16 mph93%30.02 "Hg10 mi
1:00 am18 °FClear.14 mph100%30.01 "Hg12 mi
12:00 am16 °FClear.10 mph86%30.02 "Hg15 mi
11:00 pm
Mon, Jan 14
16 °FClear.9 mph93%30.01 "Hg15 mi
Weather by CustomWeather, © 2019

See weather overview